LX0APE-4 Weather Reports


time (UTC)temp
F
wind
direction
speed
knots
gust
knots
rain 1hr
in
rain 24hr
in
rain mn
in
humidity
%
barometer
mb
20260506214149 49 315 0.0 0.0 0.00 0.04 0.00 78 5007.5
20260506213649 49 337 0.0 0.0 0.00 0.04 0.00 78 5007.5
20260506213149 49 337 0.0 0.0 0.00 0.04 0.00 78 5007.6
20260506212649 49 337 0.0 0.0 0.00 0.04 0.00 78 5007.6
20260506212149 49 337 0.0 0.0 0.00 0.04 0.00 78 5007.4
20260506211649 49 337 0.0 0.0 0.00 0.04 0.00 78 5007.2
20260506211149 49 315 0.0 0.0 0.00 0.04 0.00 77 5007.3
20260506210649 49 315 0.0 0.0 0.00 0.04 0.00 77 5007.3
20260506210149 49 315 0.0 0.0 0.00 0.04 0.00 77 5007.3
20260506205649 49 337 0.0 0.0 0.00 0.04 0.00 77 5007.2
20260506205149 49 292 0.0 0.0 0.00 0.04 0.00 77 5007.2
20260506204649 50 337 0.0 0.0 0.00 0.04 0.00 76 5007.1
20260506204149 50 337 0.0 0.0 0.00 0.04 0.00 76 5007.1
20260506203649 50 337 0.0 0.0 0.00 0.04 0.00 76 5007.1
20260506203149 50 337 0.0 0.0 0.00 0.04 0.00 76 5007.1
20260506202649 50 0 0.0 0.0 0.00 0.04 0.00 76 5007.0
20260506202149 50 337 0.0 0.0 0.00 0.04 0.00 76 5007.0
20260506201649 50 0 0.0 0.0 0.00 0.04 0.00 76 5006.9
20260506201149 50 315 0.0 0.0 0.00 0.04 0.00 77 5007.0
20260506200659 50 337 0.0 0.0 0.00 0.04 0.00 77 5006.9
20260506200649 50 337 0.0 0.0 0.00 0.04 0.00 77 5006.9
20260506200149 50 337 0.0 0.0 0.00 0.04 0.00 77 5006.8
20260506195649 50 337 0.0 0.0 0.00 0.04 0.00 77 5006.7
20260506195154 51 337 0.0 0.0 0.00 0.04 0.00 78 5006.7
20260506195149 51 337 0.0 0.0 0.00 0.04 0.00 78 5006.7
20260506194649 51 337 0.0 0.0 0.00 0.04 0.00 78 5006.6
20260506194149 51 0 0.0 0.0 0.00 0.04 0.00 77 5006.6
20260506193649 51 0 0.0 0.0 0.00 0.04 0.00 77 5006.7
20260506193149 51 337 0.0 0.0 0.00 0.04 0.00 76 5006.6
20260506192649 51 337 0.0 0.0 0.00 0.04 0.00 76 5006.5
20260506192149 51 337 0.0 0.0 0.00 0.04 0.00 75 5006.5
20260506191649 51 337 0.0 0.0 0.00 0.04 0.00 75 5006.3
20260506191149 51 337 0.0 0.0 0.00 0.04 0.00 75 5006.2
20260506190654 51 315 0.0 0.0 0.00 0.04 0.00 75 5006.2
20260506190649 51 315 0.0 0.0 0.00 0.04 0.00 75 5006.2
20260506190149 51 315 0.0 0.0 0.00 0.04 0.00 75 5006.1
20260506185649 52 315 0.0 0.0 0.00 0.08 0.00 75 5006.0
20260506185153 52 337 0.0 0.0 0.00 0.08 0.00 75 5005.9
20260506185149 52 337 0.0 0.0 0.00 0.08 0.00 75 5005.9
20260506184649 52 315 0.0 0.0 0.00 0.08 0.00 75 5005.9
20260506184149 52 315 0.0 0.0 0.00 0.08 0.00 75 5005.8
20260506183654 52 337 0.0 0.0 0.00 0.08 0.00 75 5005.7
20260506183649 52 337 0.0 0.0 0.00 0.08 0.00 75 5005.7
20260506183149 52 337 0.0 0.0 0.00 0.08 0.00 75 5005.7
20260506182649 52 0 0.0 0.0 0.00 0.08 0.00 74 5005.9
20260506182153 52 0 0.0 0.0 0.00 0.08 0.00 74 5005.6
20260506182149 52 0 0.0 0.0 0.00 0.08 0.00 74 5005.6
20260506181649 52 337 0.0 0.0 0.00 0.08 0.00 73 5005.5
20260506181149 52 337 0.0 0.0 0.00 0.08 0.00 73 5005.4
20260506180654 53 337 0.0 0.0 0.00 0.08 0.00 72 5005.3
20260506180649 53 337 0.0 0.0 0.00 0.08 0.00 72 5005.3
20260506180149 53 337 0.0 0.0 0.00 0.08 0.00 71 5005.3
20260506175649 53 0 0.0 0.0 0.00 0.14 0.00 71 5005.2
20260506175149 54 337 0.0 0.0 0.00 0.14 0.00 71 5005.1
20260506174649 54 337 0.0 0.0 0.00 0.14 0.00 71 5005.1
20260506174149 54 337 0.0 0.0 0.00 0.14 0.00 72 5005.1
20260506173649 54 0 0.0 0.0 0.00 0.14 0.00 72 5005.1
20260506173149 54 337 0.0 0.0 0.00 0.14 0.00 72 5005.1
20260506172649 55 0 0.0 0.0 0.00 0.14 0.00 71 5005.0
20260506172149 55 0 0.0 0.0 0.00 0.14 0.00 69 5005.0
20260506171649 56 337 0.0 0.0 0.00 0.14 0.00 69 5004.9
20260506171149 57 0 0.0 0.0 0.00 0.14 0.00 68 5004.9
20260506170649 57 315 0.0 0.0 0.00 0.14 0.00 68 5004.9
20260506170149 57 337 0.0 0.0 0.00 0.14 0.00 69 5004.9
20260506165649 57 0 0.0 0.0 0.00 0.14 0.00 71 5004.9
20260506165154 56 337 0.0 0.0 0.00 0.14 0.00 72 5004.8
20260506165149 56 337 0.0 0.0 0.00 0.14 0.00 72 5004.8
20260506164649 55 0 0.0 0.0 0.00 0.14 0.00 72 5004.8
20260506164149 54 0 0.0 0.0 0.00 0.14 0.00 73 5004.7
20260506163649 54 337 0.0 0.0 0.00 0.14 0.00 74 5004.7
20260506163149 54 0 0.0 0.0 0.00 0.14 0.00 74 5004.7
20260506162649 54 337 0.0 0.0 0.00 0.14 0.00 74 5004.8
20260506162149 54 337 0.0 0.0 0.00 0.14 0.00 75 5004.8
20260506161649 54 0 0.0 0.0 0.00 0.14 0.00 75 5004.8
20260506161149 54 0 0.0 0.0 0.00 0.14 0.00 76 5004.9
20260506160649 53 0 0.0 0.0 0.00 0.14 0.00 76 5004.9
20260506160149 53 0 0.0 0.0 0.00 0.14 0.00 76 5004.9
20260506155649 53 337 0.0 0.0 0.00 0.14 0.00 76 5004.9
20260506155154 54 315 0.0 0.0 0.00 0.14 0.00 75 5004.8
20260506155149 54 315 0.0 0.0 0.00 0.14 0.00 75 5004.8
20260506154649 54 22 0.0 0.0 0.00 0.14 0.00 75 5004.9
20260506154149 55 0 0.0 0.0 0.00 0.14 0.00 75 5004.8
20260506153649 55 337 0.0 0.0 0.00 0.14 0.00 74 5004.9
20260506153149 55 0 0.0 0.0 0.00 0.14 0.00 75 5004.9
20260506152649 55 0 0.0 0.0 0.00 0.14 0.00 75 5004.8
20260506152149 55 0 0.0 0.0 0.00 0.14 0.00 75 5004.8
20260506151649 55 337 0.0 0.0 0.00 0.14 0.00 75 5004.7
20260506151149 55 337 0.0 0.0 0.00 0.14 0.00 76 5004.6
20260506150654 54 315 0.0 0.0 0.00 0.14 0.00 77 5004.6
20260506150649 54 315 0.0 0.0 0.00 0.14 0.00 77 5004.6
20260506150149 54 337 0.0 0.0 0.00 0.14 0.00 76 5004.5
20260506145649 54 337 0.0 0.0 0.00 0.14 0.00 75 5004.5
20260506145149 55 337 0.0 0.0 0.00 0.14 0.00 75 5004.5
20260506144649 55 315 0.0 0.0 0.00 0.14 0.00 76 5004.5
20260506144149 54 337 0.0 0.0 0.00 0.14 0.00 77 5004.5
20260506143649 54 337 0.0 0.0 0.00 0.14 0.00 77 5004.4
20260506143149 54 337 0.0 0.0 0.00 0.14 0.00 77 5004.4
20260506142649 54 315 0.0 0.0 0.00 0.14 0.00 76 5004.3
20260506142149 55 337 0.0 0.0 0.00 0.14 0.00 76 5004.3
20260506141649 55 225 0.0 0.0 0.00 0.14 0.00 76 5004.3
20260506141149 55 292 0.0 0.0 0.00 0.14 0.00 75 5004.3
20260506140649 55 22 0.0 0.0 0.00 0.14 0.00 75 5004.2
20260506140149 55 337 0.0 0.0 0.00 0.14 0.00 73 5004.2
20260506135649 56 337 0.0 0.0 0.00 0.16 0.00 74 5004.0
20260506135149 56 337 0.0 0.0 0.00 0.16 0.00 74 5004.0
20260506134649 56 337 0.0 0.0 0.00 0.16 0.00 74 5004.0
20260506134149 56 337 0.0 0.0 0.00 0.16 0.00 75 5004.1
20260506133649 56 337 0.0 0.0 0.00 0.16 0.00 74 5004.1
20260506133149 56 337 0.0 0.0 0.00 0.16 0.00 74 5004.2
20260506132649 56 337 0.0 0.0 0.00 0.16 0.00 74 5004.2
20260506132149 56 315 0.0 0.0 0.00 0.16 0.00 75 5004.3
20260506131649 56 315 0.0 0.0 0.00 0.16 0.00 74 5004.2
20260506131149 57 45 0.0 0.0 0.00 0.16 0.00 74 5004.2
20260506130649 57 337 0.0 0.0 0.00 0.16 0.00 73 5004.1
20260506130149 57 337 0.0 0.0 0.00 0.16 0.00 74 5004.1
20260506125649 57 292 0.0 0.0 0.00 0.18 0.00 74 5004.1
20260506125149 57 315 0.0 0.0 0.00 0.18 0.00 73 5003.9
20260506124650 57 315 0.0 0.0 0.00 0.18 0.00 73 5003.9
20260506124150 57 337 0.0 0.0 0.00 0.18 0.00 73 5003.9
20260506123650 58 315 0.0 0.0 0.00 0.18 0.00 72 5003.9
20260506123150 58 337 0.0 0.0 0.00 0.18 0.00 73 5003.9
20260506122650 58 22 0.0 0.0 0.00 0.18 0.00 73 5003.8
20260506122150 58 315 0.0 0.0 0.00 0.18 0.00 73 5003.8
20260506121650 58 67 0.0 0.0 0.00 0.18 0.00 74 5003.8
20260506121150 58 315 0.0 0.0 0.00 0.18 0.00 74 5003.7
20260506120653 58 22 0.0 0.0 0.00 0.18 0.00 75 5003.5
20260506120650 58 22 0.0 0.0 0.00 0.18 0.00 75 5003.5
20260506120150 58 292 0.0 0.0 0.00 0.18 0.00 76 5003.6
20260506115650 57 315 0.0 0.0 0.00 0.20 0.00 77 5003.6
20260506115150 57 315 0.0 0.0 0.00 0.20 0.00 78 5003.6
20260506114650 56 315 0.0 0.0 0.00 0.20 0.00 78 5003.7
20260506114150 55 292 0.0 0.0 0.00 0.20 0.00 79 5003.8
20260506113650 55 315 0.0 0.0 0.00 0.20 0.00 79 5003.7
20260506113150 56 22 0.0 0.0 0.00 0.20 0.00 79 5003.7
20260506112650 56 292 0.0 0.0 0.00 0.20 0.00 79 5003.7
20260506112150 56 337 0.0 0.0 0.00 0.20 0.00 79 5003.5
20260506111650 56 315 0.0 0.0 0.00 0.20 0.00 79 5003.4
20260506111150 56 315 0.0 0.0 0.00 0.20 0.00 79 5003.4
20260506110650 57 22 0.0 0.0 0.00 0.20 0.00 78 5003.3
20260506110150 57 0 0.0 0.0 0.00 0.20 0.00 79 5003.3
20260506105650 57 337 0.0 0.0 0.00 0.22 0.00 79 5003.3
20260506105150 58 337 0.0 0.0 0.00 0.22 0.00 78 5003.3
20260506104650 58 337 0.0 0.0 0.00 0.22 0.00 77 5003.4
20260506104150 59 315 0.0 0.0 0.00 0.22 0.00 78 5003.4
20260506103650 59 270 0.0 0.0 0.00 0.22 0.00 80 5003.2
20260506103150 58 292 0.0 0.0 0.00 0.22 0.00 79 5003.0
20260506102650 58 315 0.0 0.0 0.00 0.22 0.00 79 5003.0
20260506102150 58 315 0.0 0.0 0.00 0.22 0.00 79 5003.1
20260506101650 59 315 0.0 0.0 0.00 0.22 0.00 79 5003.0
20260506101150 59 315 0.0 0.0 0.00 0.22 0.00 80 5003.0
20260506100650 59 337 0.0 0.0 0.02 0.22 0.00 81 5002.8
20260506100150 58 315 0.0 0.0 0.02 0.22 0.00 83 5003.0
20260506095650 57 292 0.0 0.0 0.02 0.22 0.00 84 5002.9
20260506095150 57 315 0.0 0.0 0.02 0.22 0.00 86 5002.9
20260506094650 56 315 0.0 0.0 0.02 0.22 0.00 88 5002.8
20260506094152 55 292 0.0 0.0 0.02 0.22 0.00 88 5002.8
20260506093650 55 315 0.0 0.0 0.02 0.22 0.00 89 5002.9
20260506093150 54 315 0.0 0.0 0.02 0.22 0.00 89 5002.8
20260506092650 54 315 0.0 0.0 0.02 0.22 0.00 88 5002.8
20260506092150 54 315 0.0 0.0 0.02 0.22 0.00 87 5002.9
20260506091650 54 292 0.0 0.0 0.02 0.22 0.00 86 5002.9
20260506091150 55 292 0.0 0.0 0.00 0.20 0.00 85 5002.9
20260506090650 55 292 0.0 0.0 0.00 0.20 0.00 85 5002.7
20260506090150 57 292 0.0 0.0 0.00 0.20 0.00 83 5002.8
20260506085650 58 292 0.0 0.0 0.00 0.20 0.00 83 5002.7
20260506085150 58 180 0.0 0.0 0.00 0.20 0.00 84 5002.6
20260506084650 58 157 0.0 0.0 0.00 0.20 0.00 84 5002.6
20260506084150 58 180 0.0 0.0 0.00 0.20 0.00 86 5002.5
20260506083650 57 135 0.0 0.0 0.00 0.20 0.00 86 5002.5
20260506083150 56 180 0.0 0.0 0.00 0.20 0.00 85 5002.6
20260506082650 57 180 0.0 0.0 0.00 0.20 0.00 86 5002.6
20260506082150 56 180 0.0 0.0 0.00 0.20 0.00 85 5002.6
20260506081650 57 202 0.0 0.0 0.00 0.20 0.00 86 5002.6
20260506081150 57 157 0.0 0.0 0.00 0.20 0.00 87 5002.4
20260506080650 56 157 0.0 0.0 0.00 0.20 0.00 87 5002.3
20260506080150 56 157 0.0 0.0 0.00 0.20 0.00 88 5002.4
20260506073150 53 180 0.0 0.0 0.00 0.20 0.00 93 5002.5
20260506072650 52 202 0.0 0.0 0.00 0.20 0.00 93 5002.6
20260506072157 52 180 0.0 0.0 0.00 0.20 0.00 93 5002.6
20260506072150 52 180 0.0 0.0 0.00 0.20 0.00 93 5002.6
20260506071650 52 180 0.0 0.0 0.00 0.20 0.00 93 5002.5
20260506071150 52 202 0.0 0.0 0.00 0.20 0.00 93 5002.6
20260506070650 52 180 0.0 0.0 0.00 0.20 0.00 93 5002.6
20260506070150 52 202 0.0 0.0 0.00 0.20 0.00 93 5002.5
20260506062150 51 157 0.0 0.0 0.02 0.20 0.00 92 5002.3
20260506061650 51 180 0.0 0.0 0.02 0.20 0.00 92 5002.2
20260506061150 51 135 0.0 0.0 0.02 0.20 0.00 92 5002.4
20260506060650 51 180 0.0 0.0 0.02 0.20 0.00 92 5002.4
20260506060150 51 157 0.0 0.0 0.02 0.20 0.00 92 5002.4
20260506051150 52 180 0.0 0.0 0.00 0.18 0.00 92 5002.1
20260506050650 52 180 0.0 0.0 0.00 0.18 0.00 92 5002.1
20260506050150 52 157 0.0 0.0 0.00 0.18 0.00 92 5002.1
20260506044650 51 180 0.0 0.0 0.00 0.18 0.00 92 5002.1
20260506044151 51 157 0.0 0.0 0.00 0.18 0.00 93 5002.1
20260506043650 51 180 0.0 0.0 0.00 0.18 0.00 93 5002.1
20260506043150 51 180 0.0 0.0 0.00 0.18 0.00 93 5002.2
20260506042650 51 157 0.0 0.0 0.00 0.18 0.00 93 5002.1
20260506042150 51 180 0.0 0.0 0.00 0.18 0.00 93 5002.2
20260506041651 51 157 0.0 0.0 0.00 0.18 0.00 93 5002.1
20260506041151 52 180 0.0 0.0 0.00 0.18 0.00 93 5002.1
20260506040650 51 180 0.0 0.0 0.00 0.18 0.00 93 5002.2
20260506040151 52 180 0.0 0.0 0.00 0.18 0.00 93 5002.1
20260506035650 52 180 0.0 0.0 0.00 0.18 0.00 93 5002.3
20260506035151 52 157 0.0 0.0 0.00 0.18 0.00 93 5002.3
20260506034650 51 180 0.0 0.0 0.00 0.18 0.00 93 5002.5
20260506034150 52 180 0.0 0.0 0.00 0.18 0.00 93 5002.6
20260506033651 52 180 0.0 0.0 0.00 0.18 0.00 93 5002.6
20260506033151 52 202 0.0 0.0 0.00 0.18 0.00 93 5002.7
20260506032651 52 180 0.0 0.0 0.00 0.18 0.00 93 5002.7
20260506032151 52 180 0.0 0.0 0.00 0.18 0.00 93 5002.8
20260506031651 52 180 0.0 0.0 0.00 0.18 0.00 93 5002.8
20260506031151 52 180 0.0 0.0 0.00 0.18 0.00 93 5002.8
20260506030651 52 202 0.0 0.0 0.00 0.18 0.00 94 5002.7
20260506030151 52 180 0.0 0.0 0.00 0.18 0.00 94 5002.7
20260506025651 52 180 0.0 0.0 0.00 0.18 0.00 94 5002.7
20260506025151 52 202 0.0 0.0 0.00 0.18 0.00 94 5002.8
20260506024651 53 157 0.0 0.0 0.00 0.18 0.00 94 5002.7
20260506024151 52 180 0.0 0.0 0.00 0.18 0.00 94 5002.7
20260506023651 52 180 0.0 0.0 0.00 0.18 0.00 94 5002.6
20260506023151 52 180 0.0 0.0 0.00 0.18 0.00 94 5002.6
20260506022651 52 180 0.0 0.0 0.00 0.18 0.00 94 5002.7
20260506022151 52 180 0.0 0.0 0.00 0.18 0.00 94 5002.6
20260506021651 52 157 0.0 0.0 0.00 0.18 0.00 94 5002.6
20260506021151 52 180 0.0 0.0 0.00 0.18 0.00 94 5002.6
20260506020651 52 180 0.0 0.0 0.00 0.18 0.00 94 5002.5
20260506020151 52 180 0.0 0.0 0.00 0.18 0.00 93 5002.6
20260506015651 52 180 0.0 0.0 0.00 0.18 0.00 93 5002.7
20260506015151 51 157 0.0 0.0 0.00 0.18 0.00 93 5002.8
20260506014651 51 180 0.0 0.0 0.00 0.18 0.00 93 5002.7
20260506014151 51 180 0.0 0.0 0.00 0.18 0.00 93 5002.7
20260506013651 51 180 0.0 0.0 0.00 0.18 0.00 93 5002.7
20260506013151 51 180 0.0 0.0 0.00 0.18 0.00 93 5002.8
20260506012651 51 157 0.0 0.0 0.00 0.18 0.00 93 5002.8
20260506012151 51 180 0.0 0.0 0.00 0.18 0.00 93 5002.8
20260506011651 51 180 0.0 0.0 0.00 0.18 0.00 93 5002.8
20260506011151 51 180 0.0 0.0 0.00 0.18 0.00 93 5002.8
20260506010651 51 202 0.0 0.0 0.00 0.18 0.00 93 5002.9
20260506010151 51 202 0.0 0.0 0.00 0.18 0.00 93 5003.1
20260506005651 51 180 0.0 0.0 0.00 0.18 0.00 93 5003.1
20260506005151 51 180 0.0 0.0 0.00 0.18 0.00 92 5003.0
20260506004651 51 180 0.0 0.0 0.00 0.18 0.00 92 5003.1
20260506004151 51 180 0.0 0.0 0.00 0.18 0.00 92 5003.2
20260506003651 52 180 0.0 0.0 0.00 0.18 0.00 92 5003.2
20260506003151 52 180 0.0 0.0 0.00 0.18 0.00 92 5003.2
20260506002651 52 180 0.0 0.0 0.00 0.18 0.00 92 5003.2
20260506002151 52 180 0.0 0.0 0.00 0.18 0.00 92 5003.2
20260506001651 52 180 0.0 0.0 0.00 0.18 0.00 92 5003.5
20260506001151 52 180 0.0 0.0 0.00 0.18 0.00 92 5003.6
20260506000651 52 180 0.0 0.0 0.00 0.18 0.00 92 5003.7
20260506000151 52 157 0.0 0.0 0.00 0.18 0.00 92 5003.6
20260505235651 52 202 0.0 0.0 0.00 0.18 0.00 92 5003.5
20260505235151 52 180 0.0 0.0 0.00 0.18 0.00 92 5003.7
20260505234651 53 180 0.0 0.0 0.00 0.18 0.00 92 5003.7
20260505234151 53 180 0.0 0.0 0.00 0.18 0.00 92 5003.7
20260505233651 53 180 0.0 0.0 0.00 0.18 0.00 92 5003.6
20260505233151 53 180 0.0 0.0 0.00 0.18 0.00 92 5003.7
20260505232651 53 180 0.0 0.0 0.00 0.18 0.00 92 5003.7
20260505232151 53 180 0.0 0.0 0.00 0.18 0.00 92 5003.7
20260505231651 53 180 0.0 0.0 0.00 0.18 0.00 92 5003.7
20260505231151 53 180 0.0 0.0 0.00 0.18 0.00 92 5003.6
20260505230651 53 157 0.0 0.0 0.00 0.18 0.00 92 5003.5
20260505230151 53 157 0.0 0.0 0.00 0.18 0.00 92 5003.6
20260505225651 53 157 0.0 0.0 0.00 0.18 0.00 92 5003.5
20260505225151 54 180 0.0 0.0 0.00 0.18 0.00 92 5003.6
20260505224651 54 180 0.0 0.0 0.00 0.18 0.00 92 5003.5
20260505224151 54 157 0.0 0.0 0.00 0.18 0.00 92 5003.6
20260505223651 53 180 0.0 0.0 0.00 0.18 0.00 92 5003.8
20260505223151 53 180 0.0 0.0 0.00 0.18 0.00 92 5003.9
20260505222651 53 157 0.0 0.0 0.00 0.18 0.00 92 5003.8
20260505222151 53 157 0.0 0.0 0.00 0.18 0.00 92 5003.8
20260505221651 53 180 0.0 0.0 0.00 0.18 0.00 92 5003.9
20260505221151 53 157 0.0 0.0 0.00 0.18 0.00 92 5003.9
20260505220651 54 180 0.0 0.0 0.00 0.18 0.00 92 5004.0
20260505220151 54 157 0.0 0.0 0.00 0.18 0.00 92 5003.9
20260505215651 54 180 0.0 0.0 0.00 0.18 0.00 92 5003.9
20260505215151 54 180 0.0 0.0 0.00 0.18 0.00 92 5003.9
20260505214651 54 180 0.0 0.0 0.00 0.18 0.00 92 5003.9